Weather in Verkhnyaya Tura

Russia / Sverdlovsk Oblast     58°21′35″N   59°49′12″E
temp.,
°C
wind,
m/s
gust,
m/s
humid.,
%
clouds,
%
prec.,
mm/h
press.,
hPa
HPBL,
m
10 may, mon
mon1023:00+13ene1168100 0.2 102010
02:00+11ese117172 0.0 102110
05:00+10ese117673 0.0 102211
08:00+14se246130 0.0 1023282
11:00+20se34425 0.0 10231144
14:00+22ese433380 0.0 10232557
17:00+21ese223068 0.0 10232005
20:00+18se22441 0.0 102439
11 may, tue
tue1123:00+13s225415 0.0 102523
02:00+11ssw225957 0.0 102629
05:00+10sw2360100 0.0 102652
08:00+14sw3648100 0.0 1026233
11:00+19wsw343898 0.0 1027784
14:00+22w353446 0.0 10261962
17:00+21nw3546100 0.0 10261371
20:00+18nw366311 0.0 1027279
12 may, wed
wed1223:00+12nw2279100 0.0 102824
02:00+10nnw1181100 0.0 102911
05:00+10w008085 0.0 103010
08:00+14nnw11585 0.0 1030439
11:00+19nnw123829 0.0 10301074
14:00+22nnw233480 0.0 10281794
17:00+22nw453795 0.0 10272223
20:00+19nw2552100 0.0 1028136
13 may, thu
thu1323:00+15wnw2265100 0.0 102920
02:00+13wnw2268100 0.0 102822
05:00+13w2370100 0.0 102938
08:00+17wnw3554100 0.0 1029261
11:00+22nw3542100 0.0 10281334
14:00+25nw353353 0.0 10272050
17:00+25nw343117 0.0 10262254
20:00+21nw224746 0.0 102622
14 may, fri
fri1423:00+16wnw11610 0.0 102611
02:00+15w116641 0.0 102611
05:00+14wsw227171 0.0 102611
08:00+19w2553100 0.0 1026249
11:00+24w46364 0.0 10241810
14:00+26nw573026 0.0 10232991
17:00+26wnw47307 0.0 10222749
20:00+22wsw114897 0.0 102115